This is the latest recevied weather packets stored in our database for station/object DB0MOD. If no packets are shown the sender has not sent any weather packets the latest 1 day(s).
| Time | Temp. | Humidity | Pressure | Rain* | Wind** | Luminosity | Snow |
|---|---|---|---|---|---|---|---|
| 1777990743 | 20° C | 41% | 1008.2 hPa | 0 mm | 0 m/s | - | - |
| 1777990443 | 20° C | 38% | 1008.3 hPa | 0 mm | 0 m/s | - | - |
| 1777990143 | 19.44° C | 39% | 1008.3 hPa | 0 mm | 0 m/s | - | - |
| 1777989843 | 19.44° C | 37% | 1008.3 hPa | 0 mm | 0 m/s | - | - |
| 1777989543 | 20° C | 36% | 1008.3 hPa | 0 mm | 0 m/s | - | - |
| 1777988943 | 20° C | 35% | 1008.3 hPa | 0 mm | 0 m/s | - | - |
| 1777988643 | 20.56° C | 31% | 1008.2 hPa | 0 mm | 0 m/s | - | - |
| 1777988343 | 20° C | 25% | 1008.4 hPa | 0 mm | 0 m/s | - | - |
| 1777988044 | 19.44° C | 20% | 1008.5 hPa | 0 mm | 0 m/s | - | - |
| 1777987743 | 19.44° C | 17% | 1008.3 hPa | 0 mm | 0 m/s | - | - |
| 1777987443 | 18.89° C | 10% | 1008.2 hPa | 0 mm | 0 m/s | - | - |
| 1777987144 | 18.33° C | 10% | 1008.4 hPa | 0 mm | 0 m/s | - | - |
| 1777986843 | 17.78° C | 10% | 1008.2 hPa | 0 mm | 0 m/s | - | - |
| 1777986544 | 17.22° C | 10% | 1008.1 hPa | 0 mm | 0 m/s | - | - |
| 1777985944 | 16.67° C | 10% | 1008.2 hPa | 0 mm | 0 m/s | - | - |
| 1777985644 | 16.67° C | 10% | 1008 hPa | 0 mm | 0 m/s | - | - |
| 1777985343 | 16.67° C | 10% | 1008.2 hPa | 0 mm | 0 m/s | - | - |
| 1777985043 | 16.67° C | 10% | 1008.1 hPa | 0 mm | 0 m/s | - | - |
| 1777984744 | 16.67° C | 10% | 1008.3 hPa | 0 mm | 0 m/s | - | - |
| 1777984444 | 16.67° C | 10% | 1008.1 hPa | 0 mm | 0 m/s | - | - |
| 1777984144 | 16.67° C | 10% | 1008.2 hPa | 0 mm | 0 m/s | - | - |
| 1777983844 | 16.11° C | 10% | 1008.3 hPa | 0 mm | 0 m/s | - | - |
| 1777983544 | 16.11° C | 10% | 1008.1 hPa | 0 mm | 0 m/s | - | - |
| 1777983244 | 15.56° C | 10% | 1008.3 hPa | 0 mm | 0 m/s | - | - |
| 1777982944 | 15° C | 10% | 1008.5 hPa | 0 mm | 0 m/s | - | - |
* Rain latest hour (hover to see other rain measurements)
** Current wind speed in m/s (hover to see current wind gust speed)